星链-30800 (STARLINK-30800 )

导读

STARLINK-30800是美国太空探索技术公司Starlink星链互联网星座的成员,于2023年11月3日发射升空。它属于星链卫星网络的扩容卫星,主要承担为全球范围提供低延迟、高速率卫星互联网接入服务的任务,依托近地轨道部署,提升星链系统在商业、民用及特种领域的服务覆盖能力与容量。

基本信息
目录编号:
58206
目录名称:
STARLINK-30800
国际标识:
2023-170A
轨道中心:
EARTH
卫星名称:
星链-30800
卫星全名:
星链-30800 (STARLINK-30800 )
卫星状态:
在轨 (已飞行1043 天)
发射日期:
2023-11-03 UTC
国别 :
美国 (US)
星等 :
--
该卫星已列入 空间交会检测服务 Space Conjunction Data Service (SCDS) ,当前飞行风险评估等级: 无高风险
轨道信息
数据来源 国际轨道数据 AOE轨道数据
星历时间 2026-09-11T07:39:04+0800
16小时前
查看轨道信息
2026-09-06T21:00:00+0800
5天前
查看轨道信息
半长轴 6861.195km 6861.165km
偏心率 0.0001489 0.0001133
轨道倾角 43.004° 43.004°
近地点辐角 272.436° 319.366°
升交点赤经 228.156° 253.257°
平近点角 87.632° 54.401°
近地点 482.036km 482.25km
远地点 484.08km 483.806km
周期 94.267分钟 94.266分钟
每日圈数 15.275772 15.275871
详细信息
固有亮度:
5
最大亮度:
0.3
卫星平台:
Starlink v2.0 mini
覆盖范围:
全球
运营商:
太空探索技术公司
运营商所在国:
美国
制造商(研发单位):
太空探索技术公司
制造商所在国:
美国
使用方式:
暂无
卫星简介
星链(Starlink)计划是由太空探索技术公司(SpaceX)提出的一个巨型低轨卫星互联网星座项目,计划在2019年至2024年间在太空搭建由约1.2万颗卫星组成的“星链”网络,其中1584颗将部署在地球上空550千米处的近地轨道,并从2020年开始工作。该卫星仍在工作。
2D轨道图
3D轨道图
轨道高度分析图
轨道倾角分析图
轨道综合分析图
查看轨道综合分析图
交会数据列表
事件ID 空间交会对象 最接近时刻(TCA) 交会距离 交会风险概率(CRP) 交会风险指数(CRI) 操作
CDM_260913-053405-820606-257421
2026-09-13T
05:34:21+0000
0.753 km
远距离
4.453578E-5 中风险 0.68
CDM_260912-192205-820606-257421
2026-09-12T
19:22:22+0000
0.983 km
远距离
1.839789E-5 中风险 0.6
CDM_260912-174805-820606-257421
2026-09-12T
17:48:12+0000
1.465 km
极远距离
4.718083E-6 低风险 0.48
CDM_260913-070805-820606-257421
2026-09-13T
07:08:30+0000
2.665 km
极远距离
1.092292E-6 低风险 0.36
与全量物体交会距离演化趋势
与全量物体交会风险概率演化趋势